Flag for U.S.A. Weather past 2 weeks in Grand Rapids, Michigan, U.S.A.

Now
74 °F

Partly sunny.


Feels Like: 77 °F
Forecast: 61 / 75 °F
Wind: 14 mph from North

Location: Kent County International Airport

Current Time: Jul 23, 2014 at 2:48:11 PM

Latest Report: Jul 23, 2014 at 1:53 PM


Visibility: 10 mi

Pressure: 30.09 "Hg

Humidity: 53%

Dew point: 56 °F

Location of Grand RapidsLocation

Historic Weather in Grand Rapids — Graph

°F

Grand Rapids temperature yesterday

Maximum temperature yesterday: 85 °F (at 12:53 PM)
Minimum temperature yesterday: 66 °F (at 6:53 AM)
Average temperature yesterday: 75 °F

Past Weeks' High & Low Weather Summary

 TemperatureHumidityPressure
High85 °F (Jul 21, 3:53 PM)97% (Jul 13, 2:01 AM)30.24 "Hg (Jul 13, 2:01 AM)
Low51 °F (Jul 17, 5:53 AM)39% (Jul 17, 6:53 PM)29.63 "Hg (Jul 8, 12:53 PM)
Average69 °F70%30.01 "Hg
* Reported Jul 8 12:53 PM — Jul 23 12:53 PM, Grand Rapids, Weather by CustomWeather, © 2014

Note: Actual official high and low records may vary slightly from our data, if they occured in-between our weather recording intervals... More about our weather records

Advertising

Grand Rapids weather history for previous 24 hours

 ConditionsComfort  
Time TempWeatherWind HumidityBarometerVisibility
12:53 PM
Jul 23
74 °FPartly sunny.9 mph53%30.09 "Hg10 mi
11:53 AM71 °FPartly sunny.10 mph61%30.10 "Hg10 mi
10:53 AM69 °FPartly sunny.9 mph66%30.08 "Hg10 mi
9:53 AM68 °FPartly sunny.14 mph68%30.08 "Hg10 mi
8:53 AM66 °FPartly sunny.12 mph75%30.07 "Hg10 mi
7:53 AM64 °FPartly sunny.12 mph78%30.07 "Hg10 mi
6:53 AM63 °FPassing clouds.12 mph81%30.07 "Hg10 mi
5:53 AM63 °FPassing clouds.8 mph81%30.02 "Hg10 mi
4:53 AM65 °FPassing clouds.13 mph81%29.97 "Hg10 mi
12:53 AM71 °FPassing clouds.10 mph84%29.96 "Hg10 mi
12:00 AM72 °FThunderstorms. Mostly cloudy.12 mph87%29.96 "Hg10 mi
11:53 PM
Jul 22
71 °FThunderstorms. Mostly cloudy.16 mph87%29.95 "Hg10 mi
10:53 PM82 °FThunderstorms. Overcast.13 mph72%29.95 "Hg9 mi
9:53 PM83 °FCloudy.14 mph70%29.90 "Hg10 mi
8:53 PM84 °FMostly cloudy.9 mph65%29.92 "Hg10 mi
7:53 PM85 °FMostly cloudy.9 mph63%29.92 "Hg10 mi
Weather by CustomWeather, © 2014

See weather overviewHow to use our weather pages